Location: Curupao
(10.4996°N, 66.6442°W)
Time: 23:28:15
(UTC+00:00)

ARIANE 5 R/B - Pass Details

Date: 23 May 2024
Orbit: 314 x 33314 km, 2.5° (Epoch: 15 June)

Event Time Altitude Azimuth Distance (km) Brightness Sun altitude
Exits shadow 09:28:50 10° 248° (WSW) 4,568 5.8 -8.8°
Reaches altitude 10° 09:29:04 10° 247° (WSW) 4,459 5.7 -8.7°
Maximum altitude 09:35:32 20° 203° (SSW) 1,842 4.1 -7.3°
Drops below altitude 10° 09:38:15 10° 152° (SSE) 1,715 4.4 -6.6°
Sets 09:39:59 0° 129° (SE) 2,232 5.4 -6.2°
